User: anonymous   Login
Location: Unspecified
(0.0000°N, 0.0000°E)
Time: 20:09:17
(UTC+00:00)
Language:

STARLINK-36219 - Orbit

View from above orbital plane
View from above orbital plane
View from above satellite
View from above satellite

Ground track
Ground track

The orbit is defined by the following mean orbital elements,

1 67125U          26145.23940981 +.00000000 +00000-0 +34800-3 0 00006
2 67125  43.0018  96.6630 0000952 268.8552  91.2191 15.27586256    01
Epoch (UTC): 25 May 2026 05:44:45
Eccentricity: 0.0000952
inclination: 43.0018°
perigee height: 482 km
apogee height: 484 km
right ascension of ascending node: 96.6630°
argument of perigee: 268.8552°
revolutions per day: 15.27586256
mean anomaly at epoch: 91.2191°

The dashed part of the orbit path shows where the satellite is in the earth's shadow,  

DLR